Hourly Weather Rus'ka Lozova

Today, 14 April, Wednesday

Time Temperature Precipitation Wind Pressure Humidity
00:00 +10°C° 0 mm 1 mps 750 mmHg 81%
01:00 +10°C° 0 mm 1 mps 750 mmHg 82%
02:00 +9°C° 0 mm 1 mps 750 mmHg 83%
03:00 +9°C° 0 mm 1 mps 750 mmHg 83%
04:00 +9°C° 0 mm 1 mps 749 mmHg 83%
05:00 +9°C° 0 mm 1 mps 749 mmHg 82%
06:00 +10°C° 0.1 mm 1 mps 749 mmHg 80%
07:00 +11°C° 0.1 mm 1 mps 749 mmHg 78%
08:00 +10°C° 0.1 mm 0 mps 749 mmHg 75%
09:00 +11°C° 0.1 mm 0 mps 748 mmHg 71%
10:00 +12°C° 0.1 mm 0 mps 748 mmHg 67%
11:00 +14°C° 0.1 mm 0 mps 748 mmHg 63%
12:00 +14°C° 0 mm 0 mps 747 mmHg 59%
13:00 +16°C° 0 mm 1 mps 747 mmHg 56%
14:00 +18°C° 0 mm 1 mps 747 mmHg 53%
15:00 +16°C° 0.2 mm 1 mps 746 mmHg 56%
16:00 +16°C° 0.2 mm 1 mps 746 mmHg 59%
17:00 +15°C° 0.2 mm 1 mps 746 mmHg 62%
18:00 +15°C° 0.1 mm 1 mps 746 mmHg 67%
19:00 +14°C° 0.1 mm 1 mps 746 mmHg 72%
20:00 +13°C° 0.1 mm 1 mps 746 mmHg 77%
21:00 +13°C° 0.1 mm 1 mps 746 mmHg 79%
22:00 +12°C° 0.1 mm 1 mps 745 mmHg 81%
23:00 +12°C° 0.1 mm 1 mps 745 mmHg 83%

Tomorrow, 15 April, Thursday

Time Temperature Precipitation Wind Pressure Humidity
00:00 +11°C° 0.1 mm 1 mps 745 mmHg 84%
01:00 +11°C° 0.1 mm 1 mps 745 mmHg 85%
02:00 +10°C° 0.1 mm 2 mps 745 mmHg 85%
03:00 +9°C° 0 mm 2 mps 745 mmHg 86%
04:00 +9°C° 0 mm 2 mps 745 mmHg 86%
05:00 +8°C° 0 mm 2 mps 745 mmHg 87%
06:00 +9°C° 0 mm 2 mps 745 mmHg 81%
07:00 +10°C° 0 mm 3 mps 745 mmHg 74%
08:00 +11°C° 0 mm 3 mps 745 mmHg 68%
09:00 +12°C° 0 mm 3 mps 745 mmHg 61%
10:00 +14°C° 0 mm 3 mps 745 mmHg 55%
11:00 +15°C° 0 mm 4 mps 745 mmHg 48%
12:00 +14°C° 0.1 mm 4 mps 745 mmHg 51%
13:00 +14°C° 0.1 mm 5 mps 744 mmHg 55%
14:00 +14°C° 0.1 mm 5 mps 744 mmHg 58%
15:00 +14°C° 0.1 mm 5 mps 744 mmHg 59%
16:00 +14°C° 0.1 mm 4 mps 744 mmHg 60%
17:00 +13°C° 0.1 mm 4 mps 744 mmHg 61%
18:00 +12°C° 0.7 mm 3 mps 744 mmHg 68%
19:00 +11°C° 0.7 mm 3 mps 744 mmHg 75%
20:00 +9°C° 0.7 mm 2 mps 745 mmHg 82%
21:00 +9°C° 0 mm 2 mps 745 mmHg 83%
22:00 +9°C° 0 mm 2 mps 744 mmHg 85%
23:00 +8°C° 0 mm 2 mps 744 mmHg 87%

Day after tomorrow, 16 April, Friday

Time Temperature Precipitation Wind Pressure Humidity
00:00 +8°C° 0 mm 2 mps 744 mmHg 88%
01:00 +8°C° 0 mm 2 mps 744 mmHg 88%
02:00 +8°C° 0 mm 2 mps 745 mmHg 89%
03:00 +7°C° 0 mm 2 mps 745 mmHg 89%
04:00 +7°C° 0 mm 3 mps 745 mmHg 90%
05:00 +7°C° 0 mm 3 mps 745 mmHg 90%
06:00 +8°C° 0 mm 3 mps 745 mmHg 85%
07:00 +7°C° 0 mm 4 mps 746 mmHg 79%
08:00 +8°C° 0 mm 5 mps 746 mmHg 73%
09:00 +8°C° 0 mm 5 mps 746 mmHg 71%
10:00 +8°C° 0 mm 5 mps 746 mmHg 69%
11:00 +8°C° 0 mm 5 mps 747 mmHg 66%
12:00 +8°C° 0 mm 5 mps 747 mmHg 67%
13:00 +8°C° 0 mm 4 mps 747 mmHg 68%
14:00 +10°C° 0 mm 4 mps 747 mmHg 69%
15:00 +10°C° 0 mm 3 mps 747 mmHg 69%
16:00 +10°C° 0 mm 3 mps 747 mmHg 69%
17:00 +10°C° 0 mm 2 mps 747 mmHg 69%
18:00 +9°C° 0 mm 2 mps 747 mmHg 73%
19:00 +9°C° 0 mm 2 mps 748 mmHg 77%
20:00 +8°C° 0 mm 2 mps 748 mmHg 81%
21:00 +7°C° 0 mm 2 mps 748 mmHg 82%
22:00 +8°C° 0 mm 1 mps 748 mmHg 84%
23:00 +8°C° 0 mm 1 mps 748 mmHg 86%

17 April, Saturday

Time Temperature Precipitation Wind Pressure Humidity
00:00 +7°C° 0 mm 1 mps 748 mmHg 86%
01:00 +7°C° 0 mm 1 mps 748 mmHg 86%
02:00 +7°C° 0 mm 1 mps 748 mmHg 86%
03:00 +7°C° 0 mm 1 mps 748 mmHg 87%
04:00 +7°C° 0 mm 1 mps 748 mmHg 87%
05:00 +7°C° 0 mm 1 mps 749 mmHg 88%
06:00 +8°C° 0.1 mm 1 mps 749 mmHg 85%
07:00 +7°C° 0.1 mm 2 mps 749 mmHg 82%
08:00 +8°C° 0.1 mm 2 mps 749 mmHg 79%
09:00 +8°C° 0.3 mm 2 mps 749 mmHg 76%
10:00 +9°C° 0.3 mm 2 mps 749 mmHg 72%
11:00 +9°C° 0.3 mm 2 mps 749 mmHg 69%
12:00 +9°C° 0.1 mm 2 mps 749 mmHg 69%
13:00 +9°C° 0.1 mm 2 mps 749 mmHg 69%
14:00 +9°C° 0.1 mm 2 mps 749 mmHg 70%
15:00 +9°C° 0.3 mm 2 mps 749 mmHg 74%
16:00 +9°C° 0.3 mm 2 mps 749 mmHg 78%
17:00 +9°C° 0.3 mm 1 mps 748 mmHg 82%
18:00 +8°C° 0.6 mm 2 mps 749 mmHg 83%
19:00 +8°C° 0.6 mm 2 mps 749 mmHg 84%
20:00 +8°C° 0.6 mm 3 mps 749 mmHg 86%
21:00 +6°C° 1.9 mm 4 mps 749 mmHg 87%
22:00 +6°C° 1.9 mm 4 mps 749 mmHg 89%
23:00 +6°C° 1.9 mm 5 mps 749 mmHg 90%

18 April, Sunday

Time Temperature Precipitation Wind Pressure Humidity
00:00 +5°C° 2.2 mm 5 mps 749 mmHg 91%
01:00 +5°C° 2.2 mm 4 mps 749 mmHg 91%
02:00 +5°C° 2.2 mm 4 mps 749 mmHg 92%
03:00 +5°C° 0.9 mm 4 mps 750 mmHg 92%
04:00 +5°C° 0.9 mm 4 mps 750 mmHg 91%
05:00 +5°C° 0.9 mm 3 mps 750 mmHg 91%
06:00 +5°C° 0.2 mm 3 mps 750 mmHg 88%
07:00 +7°C° 0.2 mm 3 mps 751 mmHg 86%
08:00 +7°C° 0.2 mm 2 mps 751 mmHg 83%
09:00 +8°C° 0 mm 2 mps 751 mmHg 78%
10:00 +9°C° 0 mm 2 mps 751 mmHg 72%
11:00 +10°C° 0 mm 2 mps 751 mmHg 67%
12:00 +12°C° 0 mm 2 mps 751 mmHg 63%
13:00 +12°C° 0 mm 2 mps 751 mmHg 59%
14:00 +13°C° 0 mm 1 mps 751 mmHg 56%
15:00 +13°C° 0 mm 2 mps 751 mmHg 56%
16:00 +13°C° 0 mm 2 mps 751 mmHg 57%
17:00 +13°C° 0 mm 2 mps 751 mmHg 57%
18:00 +12°C° 0 mm 2 mps 751 mmHg 64%
19:00 +10°C° 0 mm 2 mps 752 mmHg 70%
20:00 +9°C° 0 mm 3 mps 752 mmHg 77%
21:00 +9°C° 0 mm 3 mps 752 mmHg 81%
22:00 +8°C° 0 mm 3 mps 752 mmHg 86%
23:00 +8°C° 0 mm 3 mps 752 mmHg 91%

19 April, Monday

Time Temperature Precipitation Wind Pressure Humidity
00:00 +7°C° 0 mm 3 mps 752 mmHg 92%
01:00 +7°C° 0 mm 3 mps 753 mmHg 93%
02:00 +5°C° 0 mm 3 mps 753 mmHg 94%
03:00 +5°C° 0 mm 3 mps 753 mmHg 93%
04:00 +5°C° 0 mm 3 mps 753 mmHg 92%
05:00 +5°C° 0 mm 3 mps 753 mmHg 91%
06:00 +6°C° 0 mm 4 mps 753 mmHg 85%
07:00 +8°C° 0 mm 4 mps 754 mmHg 78%
08:00 +9°C° 0 mm 5 mps 754 mmHg 71%
09:00 +10°C° 0 mm 5 mps 754 mmHg 69%
10:00 +10°C° 0 mm 6 mps 754 mmHg 67%
11:00 +11°C° 0 mm 6 mps 754 mmHg 65%
12:00 +11°C° 0 mm 6 mps 754 mmHg 64%
13:00 +11°C° 0 mm 6 mps 754 mmHg 63%
14:00 +11°C° 0 mm 6 mps 754 mmHg 62%
15:00 +11°C° 0 mm 6 mps 754 mmHg 63%
16:00 +11°C° 0 mm 6 mps 754 mmHg 64%
17:00 +11°C° 0 mm 6 mps 754 mmHg 66%
18:00 +10°C° 0 mm 6 mps 754 mmHg 67%
19:00 +9°C° 0 mm 6 mps 754 mmHg 69%
20:00 +9°C° 0 mm 6 mps 754 mmHg 71%
21:00 +8°C° 0 mm 6 mps 754 mmHg 73%
22:00 +7°C° 0 mm 5 mps 754 mmHg 76%
23:00 +6°C° 0 mm 5 mps 754 mmHg 78%
Show more